EW5546 Weather Reports


Display with metric or nautical units.
time (UTC)temp
F
wind
direction
speed
MPH
gust
MPH
rain 1hr
in
rain 24hr
in
rain mn
in
humidity
%
barometer
mb
20260904090022 68 218 2.0 3.0 0.00 0.00 0.00 63 1010.0
20260904085015 68 228 2.0 2.0 0.00 0.00 0.00 64 1010.0
20260904084022 68 220 1.0 1.0 0.00 0.00 0.00 65 1010.0
20260904083022 68 220 2.0 3.0 0.00 0.00 0.00 66 1010.0
20260904082025 68 226 1.0 2.0 0.00 0.00 0.00 67 1010.0
20260904081022 68 210 1.0 2.0 0.00 0.00 0.00 67 1010.0
20260904080024 67 209 1.0 1.0 0.00 0.00 0.00 67 1010.0
20260904075022 67 239 1.0 2.0 0.00 0.00 0.00 67 1010.0
20260904074016 67 255 2.0 3.0 0.00 0.00 0.00 68 1010.0
20260904073022 67 219 1.0 1.0 0.00 0.00 0.00 68 1010.0
20260904072022 67 222 1.0 3.0 0.00 0.00 0.00 68 1010.0
20260904071102 67 208 1.0 2.0 0.00 0.00 0.00 69 1010.0
20260904070047 66 223 2.0 3.0 0.00 0.00 0.00 69 1010.0
20260904065023 66 217 1.0 2.0 0.00 0.00 0.00 70 1010.0
20260904064022 66 208 1.0 2.0 0.00 0.00 0.00 70 1010.0
20260904063022 65 222 1.0 3.0 0.00 0.00 0.00 71 1010.0
20260904062022 65 219 1.0 1.0 0.00 0.00 0.00 71 1010.0
20260904061022 64 228 2.0 3.0 0.00 0.00 0.00 72 1010.0
20260904060024 64 234 1.0 2.0 0.00 0.00 0.00 72 1010.0
20260904055029 64 221 2.0 3.0 0.00 0.00 0.00 71 1010.0
20260904054024 64 218 2.0 3.0 0.00 0.00 0.00 71 1010.0
20260904053025 64 206 2.0 3.0 0.00 0.00 0.00 70 1010.0
20260904052025 64 230 1.0 2.0 0.00 0.00 0.00 70 1010.0
20260904051017 64 221 2.0 3.0 0.00 0.00 0.00 68 1010.0
20260904050022 64 214 1.0 1.0 0.00 0.00 0.00 68 1010.0
20260904045022 64 203 1.0 2.0 0.00 0.00 0.00 67 1010.0
20260904044015 64 217 2.0 2.0 0.00 0.00 0.00 68 1010.0
20260904043024 64 211 2.0 2.0 0.00 0.00 0.00 67 1010.0
20260904042022 64 224 1.0 2.0 0.00 0.00 0.00 67 1011.0
20260904041026 64 207 1.0 2.0 0.00 0.00 0.00 66 1011.0
20260904040020 64 203 1.0 2.0 0.00 0.00 0.00 66 1011.0
20260904035023 64 207 1.0 3.0 0.00 0.00 0.00 65 1010.0
20260904034016 64 202 1.0 2.0 0.00 0.00 0.00 65 1010.7
20260904033023 64 238 1.0 2.0 0.00 0.00 0.00 64 1011.0
20260904032022 64 227 1.0 2.0 0.00 0.00 0.00 64 1011.0
20260904031023 64 218 1.0 1.0 0.00 0.00 0.00 63 1011.0
20260904030022 64 210 1.0 1.0 0.00 0.00 0.00 62 1011.0
20260904025022 64 203 0.0 1.0 0.00 0.00 0.00 62 1011.0
20260904024018 64 214 1.0 1.0 0.00 0.00 0.00 62 1011.0
20260904023046 64 203 1.0 2.0 0.00 0.00 0.00 62 1011.0
20260904022042 64 225 0.0 1.0 0.00 0.00 0.00 61 1011.0
20260904021022 64 203 1.0 1.0 0.00 0.00 0.00 61 1011.0
20260904020023 64 230 1.0 1.0 0.00 0.00 0.00 62 1011.0
20260904015022 64 191 1.0 2.0 0.00 0.00 0.00 62 1011.0
20260904014022 64 225 1.0 2.0 0.00 0.00 0.00 62 1011.0
20260904013016 64 225 1.0 1.0 0.00 0.00 0.00 62 1011.0
20260904012022 64 231 0.0 1.0 0.00 0.00 0.00 63 1011.0
20260904011042 64 214 1.0 1.0 0.00 0.00 0.00 63 1011.0
20260904010050 64 203 0.0 1.0 0.00 0.00 0.00 63 1011.0
20260904005016 64 203 1.0 2.0 0.00 0.00 0.00 62 1011.0
20260904004022 64 248 0.0 1.0 0.00 0.00 0.00 63 1011.0
20260904003016 65 0.0 0.0 0.00 0.00 0.00 63 1011.0
20260904002024 65 231 1.0 1.0 0.00 0.00 0.00 63 1012.0
20260904001022 65 230 1.0 2.0 0.00 0.00 0.00 64 1012.0
20260904000023 65 203 0.0 1.0 0.00 0.00 0.00 63 1012.0
20260903235024 65 248 1.0 2.0 0.00 0.00 0.00 63 1012.0
20260903234025 65 0.0 0.0 0.00 0.00 0.00 63 1012.0
20260903233023 65 0.0 0.0 0.00 0.00 0.00 61 1012.0
20260903232022 66 203 0.0 2.0 0.00 0.00 0.00 59 1012.0
20260903231042 66 203 1.0 1.0 0.00 0.00 0.00 58 1012.9
20260903230044 66 0.0 0.0 0.00 0.00 0.00 57 1013.0
20260903225022 67 214 0.0 1.0 0.00 0.00 0.00 52 1012.0
20260903224025 67 234 1.0 1.0 0.00 0.00 0.00 52 1012.0
20260903223021 67 0.0 0.0 0.00 0.00 0.00 52 1012.0
20260903222022 67 203 0.0 1.0 0.00 0.00 0.00 52 1012.0
20260903221024 67 203 0.0 1.0 0.00 0.00 0.00 51 1012.7
20260903220018 67 203 1.0 1.0 0.00 0.00 0.00 52 1013.0
20260903215022 67 0.0 0.0 0.00 0.00 0.00 52 1013.0
20260903214024 67 203 0.0 1.0 0.00 0.00 0.00 51 1013.0
20260903213027 67 225 0.0 1.0 0.00 0.00 0.00 52 1013.0
20260903212022 67 218 1.0 1.0 0.00 0.00 0.00 52 1013.0
20260903211022 67 215 1.0 2.0 0.00 0.00 0.00 52 1013.0
20260903210019 67 203 0.0 1.0 0.00 0.00 0.00 53 1013.0
20260903205022 67 209 1.0 2.0 0.00 0.00 0.00 54 1013.0
20260903204022 67 203 1.0 1.0 0.00 0.00 0.00 55 1013.0
20260903203015 67 0.0 0.0 0.00 0.00 0.00 56 1013.0
20260903202022 67 0.0 0.0 0.00 0.00 0.00 56 1013.0
20260903201022 67 0.0 0.0 0.00 0.00 0.00 56 1013.0
20260903200022 68 0.0 0.0 0.00 0.00 0.00 55 1013.0
20260903195022 68 0.0 0.0 0.00 0.00 0.00 53 1013.0
20260903194022 68 0.0 0.0 0.00 0.00 0.00 53 1013.0
20260903193042 68 0.0 0.0 0.00 0.00 0.00 53 1013.0
20260903192025 68 203 0.0 1.0 0.00 0.00 0.00 52 1014.0
20260903191021 68 0.0 0.0 0.00 0.00 0.00 52 1014.0
20260903190054 68 203 0.0 1.0 0.00 0.00 0.00 52 1014.0
20260903185022 68 0.0 0.0 0.00 0.00 0.00 51 1014.0
20260903184024 69 0.0 0.0 0.00 0.00 0.00 50 1014.0
20260903183104 69 0.0 0.0 0.00 0.00 0.00 49 1014.0
20260903182016 69 203 0.0 1.0 0.00 0.00 0.00 48 1014.0
20260903181106 69 215 1.0 2.0 0.00 0.00 0.00 47 1014.0
20260903180015 70 241 1.0 2.0 0.00 0.00 0.00 46 1014.0
20260903175022 70 203 0.0 1.0 0.00 0.00 0.00 47 1014.0
20260903174038 70 0.0 0.0 0.00 0.00 0.00 46 1014.0
20260903173025 70 0.0 0.0 0.00 0.00 0.00 45 1014.0
20260903172026 70 225 0.0 1.0 0.00 0.00 0.00 45 1013.0
20260903171016 71 225 0.0 1.0 0.00 0.00 0.00 44 1013.5
20260903170022 71 0.0 0.0 0.00 0.00 0.00 44 1014.0
20260903165026 71 0.0 0.0 0.00 0.00 0.00 44 1014.0
20260903164022 71 203 1.0 1.0 0.00 0.00 0.00 43 1014.0
20260903163022 71 236 0.0 1.0 0.00 0.00 0.00 43 1014.0
20260903162025 72 214 0.0 1.0 0.00 0.00 0.00 42 1014.0
20260903161018 72 212 0.0 1.0 0.00 0.00 0.00 42 1014.0
20260903160016 72 218 0.0 1.0 0.00 0.00 0.00 42 1014.0
20260903155025 73 248 0.0 1.0 0.00 0.00 0.00 42 1014.0
20260903154015 73 216 1.0 1.0 0.00 0.00 0.00 42 1014.0
20260903153022 73 229 1.0 2.0 0.00 0.00 0.00 42 1014.0
20260903152023 73 234 1.0 2.0 0.00 0.00 0.00 41 1014.0
20260903151020 73 213 1.0 1.0 0.00 0.00 0.00 41 1014.0
20260903150022 74 0.0 0.0 0.00 0.00 0.00 40 1014.0
20260903145017 74 203 1.0 2.0 0.00 0.00 0.00 40 1014.0
20260903144023 74 220 1.0 1.0 0.00 0.00 0.00 39 1014.0
20260903143022 75 170 1.0 1.0 0.00 0.00 0.00 39 1014.0
20260903142025 76 230 1.0 2.0 0.00 0.00 0.00 38 1014.0
20260903141039 77 84 2.0 4.0 0.00 0.00 0.00 38 1014.0
20260903140022 78 236 1.0 1.0 0.00 0.00 0.00 38 1014.0
20260903135022 78 214 1.0 2.0 0.00 0.00 0.00 39 1014.0
20260903134022 78 222 1.0 2.0 0.00 0.00 0.00 38 1014.0
20260903133023 78 242 1.0 2.0 0.00 0.00 0.00 39 1014.0
20260903132024 77 202 1.0 2.0 0.00 0.00 0.00 40 1014.0
20260903131023 76 129 2.0 3.0 0.00 0.00 0.00 40 1014.9
20260903130025 76 353 2.0 5.0 0.00 0.00 0.00 40 1015.0
20260903124017 75 60 2.0 4.0 0.00 0.00 0.00 40 1015.0
20260903123024 75 218 2.0 3.0 0.00 0.00 0.00 41 1015.0
20260903122022 74 76 1.0 3.0 0.00 0.00 0.00 42 1015.0
20260903121024 74 79 2.0 3.0 0.00 0.00 0.00 41 1015.0
20260903120018 73 44 1.0 2.0 0.00 0.00 0.00 42 1015.0
20260903115022 73 68 1.0 4.0 0.00 0.00 0.00 42 1015.0
20260903114022 73 79 2.0 4.0 0.00 0.00 0.00 42 1015.0
20260903113016 73 302 2.0 4.0 0.00 0.00 0.00 42 1015.0
20260903112022 73 92 2.0 5.0 0.00 0.00 0.00 42 1016.1
20260903111015 74 193 1.0 3.0 0.00 0.00 0.00 43 1016.1
20260903110015 73 206 1.0 2.0 0.00 0.00 0.00 43 1016.1
20260903105022 73 219 1.0 2.0 0.00 0.00 0.00 43 1016.1
20260903104023 73 224 2.0 3.0 0.00 0.00 0.00 43 1016.1
20260903103040 73 77 2.0 3.0 0.00 0.00 0.00 43 1016.1
20260903102024 73 223 2.0 2.0 0.00 0.00 0.00 44 1016.1
20260903101022 72 194 1.0 2.0 0.00 0.00 0.00 45 1016.1
20260903100022 72 249 1.0 2.0 0.00 0.00 0.00 45 1016.1
20260903095042 72 3 2.0 4.0 0.00 0.00 0.00 46 1016.1
20260903094022 71 23 2.0 3.0 0.00 0.00 0.00 47 1016.1
20260903093042 71 45 1.0 3.0 0.00 0.00 0.00 48 1016.1
20260903092024 71 34 1.0 4.0 0.00 0.00 0.00 48 1016.1
20260903091022 70 201 1.0 2.0 0.00 0.00 0.00 49 1016.6
20260903090118 70 218 2.0 2.0 0.00 0.00 0.00 48 1017.1